Aérodrome :
LOGIN :

S'inscrire | Disclaimer

   EN    FR    IT 

 










Légende :    VFR   VFR Marginal   IFR   IFR Intensif   IFR Très Intensif
Visi : 
Plafond : 
>= 8 km
>= 3000ft
5 à 8 km
1000 à 3000 ft
1500m à 5 km
500 à 1000 ft
800 à 1500m
200 à 500 ft
< 800m
< 200 ft
Symboles :   Orages  Brouillard  Fortes neiges  Fortes précipitations  Vent > 20 kt
SIGMETs :   Divers  Orages  Givrage  Turbulence  Onde Orograph.  Cendres Volcan.







- Altitude de l'aérodrome : 148 ft
- Code IATA : ALL


LIMG - Villanova D'Albenga International

DERNIER METAR :
  • 131450Z 01015G26KT 9999 BKN070 08/M07 Q1011

METARs EXPIRÉS :
  • 131350Z 01013G32KT 330V060 9999 FEW050 SCT080 08/M06 Q1011
  • 131250Z 02018G28KT 330V040 9999 SCT080 08/M06 Q1011
  • 131150Z 02010G31KT 9999 BKN060 08/M06 Q1012

Prévision TAF périmée.
Pas de NOTAMs connus pour ce terrain.
1 SIGMET publié pour la FIR Milano (LIMM) :
 
Givrage fort
LIMM SIGMET 6 VALID 131400/131800 LIIP
LIMM MILANO FIR SEV ICE FCST WI N4548 E01336 - N4456 E00907 - N4337 E01135 - N4331 E01426 - N4516 E01257 - N4537 E01352 - N4548 E01336 FL020/140 MOV E NC=



MET'MAP, la Météo Aéronautique d'un coup d'oeil ! - Copyright ORBIFLY Décembre 2007 - Disclaimer

ORBIFLY MET'MAP TEAM :

Programmation & Développement : Alexandra Zaïnal
Conception & Développement : Baudouin d'Aumeries
Co-Programmation & Développement : Marc-Olivier Méhu
Soutien technique & logistique : Manuel Goepfert

Contact : metmap@orbifly.com




SOURCES & CREDITS :

   NOAA